| time (UTC) | temp F | wind direction | speed MPH | gust MPH | rain 1hr in | rain 24hr in | rain mn in | humidity % | barometer mb |
| 20260509185636 | 49 | 92 | 20.0 | 50.0 | 0.00 | 0.00 | 0.00 | 69 | 797.0 |
| 20260509184622 | 49 | 92 | 20.0 | 50.0 | 0.00 | 0.00 | 0.00 | 68 | 797.1 |
| 20260509183607 | 49 | 92 | 20.0 | 50.0 | 0.00 | 0.00 | 0.00 | 68 | 797.2 |
| 20260509182553 | 48 | 92 | 20.0 | 50.0 | 0.00 | 0.00 | 0.00 | 68 | 797.3 |
| 20260509181536 | 48 | 92 | 20.0 | 50.0 | 0.00 | 0.00 | 0.00 | 68 | 797.3 |
| 20260509180521 | 49 | 92 | 20.0 | 50.0 | 0.00 | 0.00 | 0.00 | 68 | 797.4 |
| 20260509175504 | 48 | 92 | 20.0 | 50.0 | 0.00 | 0.00 | 0.00 | 69 | 797.5 |
| 20260509174447 | 49 | 92 | 20.0 | 50.0 | 0.00 | 0.00 | 0.00 | 68 | 797.5 |
| 20260509172417 | 49 | 92 | 20.0 | 50.0 | 0.00 | 0.00 | 0.00 | 68 | 797.7 |
| 20260509171401 | 49 | 92 | 20.0 | 50.0 | 0.00 | 0.00 | 0.00 | 68 | 797.8 |
| 20260509170346 | 49 | 92 | 20.0 | 50.0 | 0.00 | 0.00 | 0.00 | 68 | 797.9 |
| 20260509165331 | 49 | 92 | 20.0 | 50.0 | 0.00 | 0.00 | 0.00 | 68 | 798.0 |
| 20260509164316 | 50 | 92 | 20.0 | 50.0 | 0.00 | 0.00 | 0.00 | 68 | 798.2 |
| 20260509163300 | 50 | 92 | 20.0 | 50.0 | 0.00 | 0.00 | 0.00 | 68 | 798.3 |
| 20260509162244 | 50 | 92 | 20.0 | 50.0 | 0.00 | 0.00 | 0.00 | 68 | 798.3 |
| 20260509161228 | 49 | 92 | 20.0 | 50.0 | 0.00 | 0.00 | 0.00 | 68 | 798.3 |
| 20260509155157 | 49 | 92 | 20.0 | 50.0 | 0.00 | 0.00 | 0.00 | 68 | 798.4 |
| 20260509154141 | 49 | 92 | 20.0 | 50.0 | 0.00 | 0.00 | 0.00 | 68 | 798.4 |
| 20260509153125 | 49 | 92 | 20.0 | 50.0 | 0.00 | 0.00 | 0.00 | 68 | 798.4 |
| 20260509151055 | 49 | 92 | 20.0 | 50.0 | 0.00 | 0.00 | 0.00 | 68 | 798.3 |
| 20260509150041 | 49 | 92 | 20.0 | 50.0 | 0.00 | 0.00 | 0.00 | 68 | 798.3 |
| 20260509145025 | 49 | 92 | 20.0 | 50.0 | 0.00 | 0.00 | 0.00 | 68 | 798.2 |
| 20260509144014 | 49 | 92 | 20.0 | 50.0 | 0.00 | 0.00 | 0.00 | 68 | 798.1 |
| 20260509143005 | 49 | 92 | 20.0 | 50.0 | 0.00 | 0.00 | 0.00 | 68 | 798.1 |
| 20260509141957 | 49 | 92 | 20.0 | 50.0 | 0.00 | 0.00 | 0.00 | 68 | 798.1 |
| 20260509140948 | 51 | 92 | 20.0 | 50.0 | 0.00 | 0.00 | 0.00 | 68 | 798.0 |
| 20260509134931 | 51 | 92 | 20.0 | 50.0 | 0.00 | 0.00 | 0.00 | 68 | 798.1 |
| 20260509133922 | 51 | 92 | 20.0 | 50.0 | 0.00 | 0.00 | 0.00 | 68 | 798.0 |
| 20260509132913 | 51 | 92 | 20.0 | 50.0 | 0.00 | 0.00 | 0.00 | 68 | 798.0 |
| 20260509131904 | 51 | 92 | 20.0 | 50.0 | 0.00 | 0.00 | 0.00 | 68 | 798.0 |
| 20260509130856 | 51 | 92 | 20.0 | 50.0 | 0.00 | 0.00 | 0.00 | 68 | 797.9 |
| 20260509124837 | 52 | 92 | 20.0 | 50.0 | 0.00 | 0.00 | 0.00 | 67 | 797.7 |
| 20260509123830 | 52 | 92 | 20.0 | 50.0 | 0.00 | 0.00 | 0.00 | 67 | 797.6 |
| 20260509122821 | 51 | 92 | 20.0 | 50.0 | 0.00 | 0.00 | 0.00 | 67 | 797.5 |
| 20260509120803 | 52 | 92 | 20.0 | 50.0 | 0.00 | 0.00 | 0.00 | 67 | 797.3 |
| 20260509115753 | 52 | 92 | 20.0 | 50.0 | 0.00 | 0.00 | 0.00 | 67 | 797.2 |
| 20260509114745 | 52 | 92 | 20.0 | 50.0 | 0.00 | 0.00 | 0.00 | 67 | 797.1 |
| 20260509113736 | 52 | 92 | 20.0 | 50.0 | 0.00 | 0.00 | 0.00 | 67 | 797.1 |
| 20260509112725 | 52 | 92 | 20.0 | 50.0 | 0.00 | 0.00 | 0.00 | 67 | 796.9 |
| 20260509111717 | 52 | 92 | 20.0 | 50.0 | 0.00 | 0.00 | 0.00 | 67 | 796.9 |
| 20260509110708 | 52 | 92 | 20.0 | 50.0 | 0.00 | 0.00 | 0.00 | 67 | 796.8 |
| 20260509105700 | 52 | 92 | 20.0 | 50.0 | 0.00 | 0.00 | 0.00 | 66 | 796.7 |
| 20260509104652 | 53 | 92 | 20.0 | 50.0 | 0.00 | 0.00 | 0.00 | 66 | 796.6 |
| 20260509103643 | 52 | 92 | 20.0 | 50.0 | 0.00 | 0.00 | 0.00 | 66 | 796.5 |
| 20260509102635 | 53 | 92 | 20.0 | 50.0 | 0.00 | 0.00 | 0.00 | 66 | 796.5 |
| 20260509100618 | 53 | 92 | 20.0 | 50.0 | 0.00 | 0.00 | 0.00 | 66 | 796.3 |
| 20260509095609 | 53 | 92 | 20.0 | 50.0 | 0.00 | 0.00 | 0.00 | 66 | 796.1 |
| 20260509094602 | 54 | 92 | 20.0 | 50.0 | 0.00 | 0.00 | 0.00 | 66 | 796.1 |
| 20260509093554 | 54 | 92 | 20.0 | 50.0 | 0.00 | 0.00 | 0.00 | 65 | 796.2 |
| 20260509092545 | 55 | 92 | 20.0 | 50.0 | 0.00 | 0.00 | 0.00 | 65 | 796.1 |
| 20260509091537 | 54 | 92 | 20.0 | 50.0 | 0.00 | 0.00 | 0.00 | 65 | 796.1 |
| 20260509090529 | 56 | 92 | 20.0 | 50.0 | 0.00 | 0.00 | 0.00 | 65 | 796.2 |
| 20260509085521 | 55 | 92 | 20.0 | 50.0 | 0.00 | 0.00 | 0.00 | 65 | 795.9 |
| 20260509084513 | 55 | 92 | 20.0 | 50.0 | 0.00 | 0.00 | 0.00 | 65 | 796.0 |
| 20260509083504 | 56 | 92 | 20.0 | 50.0 | 0.00 | 0.00 | 0.00 | 65 | 796.0 |
| 20260509082455 | 56 | 92 | 20.0 | 50.0 | 0.00 | 0.00 | 0.00 | 65 | 795.9 |
| 20260509081447 | 56 | 92 | 20.0 | 50.0 | 0.00 | 0.00 | 0.00 | 65 | 796.0 |
| 20260509080439 | 55 | 92 | 20.0 | 50.0 | 0.00 | 0.00 | 0.00 | 66 | 796.0 |
| 20260509075429 | 56 | 92 | 20.0 | 50.0 | 0.00 | 0.00 | 0.00 | 65 | 795.9 |
| 20260509074415 | 55 | 92 | 20.0 | 50.0 | 0.00 | 0.00 | 0.00 | 65 | 795.9 |
| 20260509073359 | 55 | 92 | 20.0 | 50.0 | 0.00 | 0.00 | 0.00 | 64 | 795.9 |
| 20260509072344 | 56 | 92 | 20.0 | 50.0 | 0.00 | 0.00 | 0.00 | 65 | 796.0 |
| 20260509071328 | 57 | 92 | 20.0 | 50.0 | 0.00 | 0.00 | 0.00 | 65 | 796.0 |
| 20260509070311 | 58 | 92 | 20.0 | 50.0 | 0.00 | 0.00 | 0.00 | 66 | 796.1 |
| 20260509065256 | 58 | 92 | 20.0 | 50.0 | 0.00 | 0.00 | 0.00 | 66 | 796.1 |
| 20260509064242 | 58 | 92 | 20.0 | 50.0 | 0.00 | 0.00 | 0.00 | 66 | 796.1 |
| 20260509061152 | 59 | 92 | 20.0 | 50.0 | 0.00 | 0.00 | 0.00 | 66 | 796.3 |
| 20260509060136 | 58 | 92 | 20.0 | 50.0 | 0.00 | 0.00 | 0.00 | 66 | 796.4 |
| 20260509054103 | 58 | 92 | 20.0 | 50.0 | 0.00 | 0.00 | 0.00 | 66 | 796.5 |
| 20260509053047 | 57 | 92 | 20.0 | 50.0 | 0.00 | 0.00 | 0.00 | 65 | 796.6 |
| 20260509052031 | 57 | 92 | 20.0 | 50.0 | 0.00 | 0.00 | 0.00 | 65 | 796.7 |
| 20260509051012 | 60 | 92 | 20.0 | 50.0 | 0.00 | 0.00 | 0.00 | 65 | 796.7 |
| 20260509044937 | 58 | 92 | 20.0 | 50.0 | 0.00 | 0.00 | 0.00 | 66 | 796.9 |
| 20260509042905 | 56 | 92 | 20.0 | 50.0 | 0.00 | 0.00 | 0.00 | 66 | 797.1 |
| 20260509041848 | 56 | 92 | 20.0 | 50.0 | 0.00 | 0.00 | 0.00 | 66 | 797.1 |
| 20260509040834 | 56 | 92 | 20.0 | 50.0 | 0.00 | 0.00 | 0.00 | 66 | 797.2 |
| 20260509035818 | 60 | 92 | 20.0 | 50.0 | 0.00 | 0.00 | 0.00 | 66 | 797.2 |
| 20260509034802 | 58 | 92 | 20.0 | 50.0 | 0.00 | 0.00 | 0.00 | 66 | 797.4 |
| 20260509033754 | 58 | 92 | 20.0 | 50.0 | 0.00 | 0.00 | 0.00 | 66 | 797.5 |
| 20260509031736 | 58 | 92 | 20.0 | 50.0 | 0.00 | 0.00 | 0.00 | 66 | 797.7 |
| 20260509030729 | 58 | 92 | 20.0 | 50.0 | 0.00 | 0.00 | 0.00 | 67 | 797.7 |
| 20260509025720 | 59 | 92 | 20.0 | 50.0 | 0.00 | 0.00 | 0.00 | 67 | 797.8 |
| 20260509024712 | 59 | 92 | 20.0 | 50.0 | 0.00 | 0.00 | 0.00 | 67 | 798.0 |
| 20260509022655 | 57 | 92 | 20.0 | 50.0 | 0.00 | 0.00 | 0.00 | 67 | 798.1 |
| 20260509021648 | 58 | 92 | 20.0 | 50.0 | 0.00 | 0.00 | 0.00 | 68 | 798.1 |
| 20260509020639 | 57 | 92 | 20.0 | 50.0 | 0.00 | 0.00 | 0.00 | 67 | 798.0 |
| 20260509015630 | 58 | 92 | 20.0 | 50.0 | 0.00 | 0.00 | 0.00 | 67 | 798.1 |
| 20260509014622 | 58 | 92 | 20.0 | 50.0 | 0.00 | 0.00 | 0.00 | 67 | 798.0 |
| 20260509013614 | 58 | 92 | 20.0 | 50.0 | 0.00 | 0.00 | 0.00 | 68 | 798.0 |
| 20260509012606 | 57 | 92 | 20.0 | 50.0 | 0.00 | 0.00 | 0.00 | 68 | 798.0 |
| 20260509010550 | 54 | 92 | 20.0 | 50.0 | 0.00 | 0.00 | 0.00 | 68 | 798.0 |
| 20260509005541 | 56 | 92 | 20.0 | 50.0 | 0.00 | 0.00 | 0.00 | 68 | 798.0 |
| 20260509004533 | 55 | 92 | 20.0 | 50.0 | 0.00 | 0.00 | 0.00 | 67 | 798.0 |
| 20260509003525 | 55 | 92 | 20.0 | 50.0 | 0.00 | 0.00 | 0.00 | 67 | 798.0 |
| 20260509002515 | 58 | 92 | 20.0 | 50.0 | 0.00 | 0.00 | 0.00 | 69 | 797.9 |
| 20260509001508 | 53 | 92 | 20.0 | 50.0 | 0.00 | 0.00 | 0.00 | 67 | 797.8 |
| 20260509000500 | 54 | 92 | 20.0 | 50.0 | 0.00 | 0.00 | 0.00 | 66 | 797.6 |
| 20260508235451 | 52 | 92 | 20.0 | 50.0 | 0.00 | 0.00 | 0.00 | 67 | 797.6 |
| 20260508234443 | 47 | 92 | 20.0 | 50.0 | 0.00 | 0.00 | 0.00 | 66 | 797.5 |
| 20260508233435 | 44 | 92 | 20.0 | 50.0 | 0.00 | 0.00 | 0.00 | 66 | 797.5 |
| 20260508232425 | 44 | 92 | 20.0 | 50.0 | 0.00 | 0.00 | 0.00 | 66 | 797.4 |
| 20260508231415 | 44 | 92 | 20.0 | 50.0 | 0.00 | 0.00 | 0.00 | 67 | 797.3 |
| 20260508230407 | 43 | 92 | 20.0 | 50.0 | 0.00 | 0.00 | 0.00 | 66 | 797.2 |
| 20260508225359 | 43 | 92 | 20.0 | 50.0 | 0.00 | 0.00 | 0.00 | 66 | 797.1 |
| 20260508224349 | 42 | 92 | 20.0 | 50.0 | 0.00 | 0.00 | 0.00 | 66 | 796.9 |
| 20260508223339 | 42 | 92 | 20.0 | 50.0 | 0.00 | 0.00 | 0.00 | 66 | 796.8 |
| 20260508222331 | 42 | 92 | 20.0 | 50.0 | 0.00 | 0.00 | 0.00 | 67 | 796.7 |
| 20260508221323 | 42 | 92 | 20.0 | 50.0 | 0.00 | 0.00 | 0.00 | 66 | 796.7 |
| 20260508220316 | 42 | 92 | 20.0 | 50.0 | 0.00 | 0.00 | 0.00 | 66 | 796.6 |
| 20260508215307 | 41 | 92 | 20.0 | 50.0 | 0.00 | 0.00 | 0.00 | 66 | 796.6 |
| 20260508214300 | 42 | 92 | 20.0 | 50.0 | 0.00 | 0.00 | 0.00 | 66 | 796.5 |
| 20260508213251 | 42 | 92 | 20.0 | 50.0 | 0.00 | 0.00 | 0.00 | 66 | 796.5 |
| 20260508212242 | 42 | 92 | 20.0 | 50.0 | 0.00 | 0.00 | 0.00 | 66 | 796.5 |
| 20260508211233 | 42 | 92 | 20.0 | 50.0 | 0.00 | 0.00 | 0.00 | 66 | 796.5 |
| 20260508210221 | 43 | 92 | 20.0 | 50.0 | 0.00 | 0.00 | 0.00 | 66 | 796.4 |
| 20260508205213 | 43 | 92 | 20.0 | 50.0 | 0.00 | 0.00 | 0.00 | 66 | 796.4 |
| 20260508204157 | 43 | 92 | 20.0 | 50.0 | 0.00 | 0.00 | 0.00 | 66 | 796.5 |
| 20260508203143 | 42 | 92 | 20.0 | 50.0 | 0.00 | 0.00 | 0.00 | 66 | 796.5 |
| 20260508202127 | 43 | 92 | 20.0 | 50.0 | 0.00 | 0.00 | 0.00 | 66 | 796.6 |
| 20260508201111 | 43 | 92 | 20.0 | 50.0 | 0.00 | 0.00 | 0.00 | 66 | 796.5 |
| 20260508200055 | 43 | 92 | 20.0 | 50.0 | 0.00 | 0.00 | 0.00 | 66 | 796.6 |
| 20260508194023 | 43 | 92 | 20.0 | 50.0 | 0.00 | 0.00 | 0.00 | 65 | 796.7 |
| 20260508193009 | 43 | 92 | 20.0 | 50.0 | 0.00 | 0.00 | 0.00 | 65 | 796.8 |
| 20260508191954 | 43 | 92 | 20.0 | 50.0 | 0.00 | 0.00 | 0.00 | 65 | 796.7 |
| 20260508190939 | 43 | 92 | 20.0 | 50.0 | 0.00 | 0.00 | 0.00 | 65 | 796.7 |
| 20260508185923 | 43 | 92 | 20.0 | 50.0 | 0.00 | 0.00 | 0.00 | 65 | 796.7 |